EW8130 Weather Reports


time (UTC)temp
C
wind
direction
speed
KPH
gust
KPH
rain 1hr
cm
rain 24hr
cm
rain mn
cm
humidity
%
barometer
mb
20260831230105 37 71 0.0 3.2 0.00 0.00 0.00 33 992.1
20260831224557 36 23 0.0 4.8 0.00 0.00 0.00 33 992.3
20260831223056 37 50 0.0 3.2 0.00 0.00 0.00 33 992.4
20260831221600 37 122 0.0 1.6 0.00 0.00 0.00 33 992.5
20260831220112 37 43 0.0 3.2 0.00 0.00 0.00 33 992.6
20260831214551 37 20 0.0 3.2 0.00 0.00 0.00 33 992.8
20260831213050 37 133 0.0 3.2 0.00 0.00 0.00 35 992.8
20260831211549 37 84 4.8 16.1 0.00 0.00 0.00 36 993.0
20260831210048 36 89 0.0 17.7 0.00 0.00 0.00 36 993.2
20260831204556 36 48 1.6 12.9 0.00 0.00 0.00 37 993.4
20260831203100 36 31 0.0 4.8 0.00 0.00 0.00 36 993.6
20260831201548 36 4 0.0 16.1 0.00 0.00 0.00 36 993.8
20260831200052 37 75 0.0 6.4 0.00 0.00 0.00 33 993.9
20260831194543 36 70 0.0 3.2 0.00 0.00 0.00 36 994.2
20260831193046 35 104 0.0 11.3 0.00 0.00 0.00 40 994.5
20260831191542 36 66 1.6 14.5 0.00 0.00 0.00 40 994.7
20260831190053 36 23 0.0 16.1 0.00 0.00 0.00 41 994.7
20260831184540 36 359 0.0 17.7 0.00 0.00 0.00 42 994.8
20260831183039 36 66 0.0 6.4 0.00 0.00 0.00 41 995.0
20260831181550 36 102 0.0 3.2 0.00 0.00 0.00 43 995.1
20260831180037 36 182 0.0 3.2 0.00 0.00 0.00 43 995.5
20260831174542 35 118 0.0 8.0 0.00 0.00 0.00 45 995.7
20260831173032 35 120 0.0 3.2 0.00 0.00 0.00 45 995.9
20260831171532 35 73 0.0 12.9 0.00 0.00 0.00 46 996.0
20260831170033 34 51 0.0 1.6 0.00 0.00 0.00 47 996.1
20260831164520 33 117 0.0 1.6 0.00 0.00 0.00 49 996.2
20260831163018 33 77 0.0 1.6 0.00 0.00 0.00 50 996.3
20260831161515 33 81 0.0 6.4 0.00 0.00 0.00 52 996.3
20260831160014 32 100 0.0 1.6 0.00 0.00 0.00 53 996.4
20260831154510 32 141 0.0 3.2 0.00 0.00 0.00 55 996.5
20260831153005 31 147 0.0 1.6 0.00 0.00 0.00 57 996.4
20260831151501 30 66 0.0 1.6 0.00 0.00 0.00 60 996.3
20260831150100 30 79 0.0 1.6 0.00 0.00 0.00 63 996.3
20260831144606 30 127 0.0 1.6 0.00 0.00 0.00 65 996.2
20260831143100 28 145 0.0 1.6 0.00 0.00 0.00 69 996.2
20260831141558 28 143 0.0 1.6 0.00 0.00 0.00 71 996.1
20260831140056 27 126 0.0 1.6 0.00 0.00 0.00 73 996.2
20260831134604 27 93 0.0 1.6 0.00 0.00 0.00 74 996.1
20260831133054 26 127 0.0 1.6 0.00 0.00 0.00 75 995.7
20260831131553 26 115 0.0 1.6 0.00 0.00 0.00 76 995.5
20260831130058 26 99 0.0 1.6 0.00 0.00 0.00 77 995.3
20260831124554 25 41 0.0 3.2 0.00 0.00 0.00 78 995.2
20260831123050 25 24 0.0 3.2 0.00 0.00 0.00 78 995.1
20260831121545 25 39 0.0 3.2 0.00 0.00 0.00 78 994.7
20260831120114 25 62 0.0 1.6 0.00 0.00 0.00 76 994.7
20260831114539 25 41 0.0 1.6 0.00 0.00 0.00 75 994.4
20260831113036 26 49 0.0 1.6 0.00 0.00 0.00 72 994.2
20260831111545 26 91 0.0 3.2 0.00 0.00 0.00 71 994.0
20260831110035 26 61 0.0 1.6 0.00 0.00 0.00 71 993.9
20260831104538 26 72 0.0 1.6 0.00 0.00 0.00 70 993.9
20260831103029 26 105 0.0 1.6 0.00 0.00 0.00 69 993.9
20260831101534 26 97 0.0 1.6 0.00 0.00 0.00 69 993.9
20260831100028 27 96 0.0 0.0 0.00 0.00 0.00 68 993.8
20260831094525 27 120 0.0 1.6 0.00 0.00 0.00 67 993.8
20260831093022 27 116 0.0 3.2 0.00 0.00 0.00 65 993.7
20260831091525 27 102 0.0 1.6 0.00 0.00 0.00 64 993.6
20260831090017 27 95 0.0 1.6 0.00 0.00 0.00 63 993.6
20260831084514 28 98 0.0 0.0 0.00 0.00 0.00 63 993.5
20260831083013 28 151 0.0 0.0 0.00 0.00 0.00 62 993.4
20260831081515 28 130 0.0 0.0 0.00 0.00 0.00 61 993.3
20260831080008 28 141 0.0 1.6 0.00 0.00 0.00 60 993.2
20260831074506 28 123 0.0 0.0 0.00 0.00 0.00 59 993.1
20260831073005 28 128 0.0 1.6 0.00 0.00 0.00 58 993.1
20260831071502 29 106 0.0 1.6 0.00 0.00 0.00 58 993.1
20260831064600 29 114 0.0 0.0 0.00 0.00 0.00 57 993.2
20260831063101 29 74 0.0 1.6 0.00 0.00 0.00 57 993.1
20260831061604 30 114 0.0 1.6 0.00 0.00 0.00 56 993.2
20260831060107 30 105 0.0 0.0 0.00 0.00 0.00 56 993.2
20260831054554 30 133 0.0 0.0 0.00 0.00 0.00 55 993.3
20260831053051 30 142 0.0 1.6 0.00 0.00 0.00 54 993.2
20260831051613 30 103 0.0 1.6 0.00 0.00 0.00 53 993.0
20260831050048 31 98 0.0 1.6 0.00 0.00 0.00 52 993.0
20260831044545 31 104 0.0 3.2 0.00 0.00 0.00 51 992.9
20260831043047 31 87 0.0 1.6 0.00 0.00 0.00 50 992.9
20260831041546 31 58 0.0 1.6 0.00 0.00 0.00 50 993.0
20260831040049 31 112 0.0 1.6 0.00 0.00 0.00 49 992.8
20260831034543 31 79 0.0 1.6 0.00 0.00 0.00 49 992.7
20260831033043 32 85 0.0 1.6 0.00 0.00 0.00 48 992.6
20260831031546 32 68 0.0 3.2 0.00 0.00 0.00 48 992.7
20260831030042 32 59 0.0 1.6 0.00 0.00 0.00 47 992.6
20260831024549 32 53 0.0 1.6 0.00 0.00 0.00 47 992.4
20260831023044 32 36 0.0 1.6 0.00 0.00 0.00 46 992.2
20260831021553 32 45 0.0 3.2 0.00 0.00 0.00 46 992.1
20260831020042 33 30 0.0 1.6 0.00 0.00 0.00 44 991.8
20260831014540 33 39 0.0 1.6 0.00 0.00 0.00 44 991.8
20260831013040 33 27 0.0 1.6 0.00 0.00 0.00 43 991.5
20260831011541 34 30 0.0 3.2 0.00 0.00 0.00 42 991.5
20260831010106 35 43 0.0 1.6 0.00 0.00 0.00 40 991.4
20260831004547 35 81 0.0 3.2 0.00 0.00 0.00 40 991.3
20260831003043 35 78 0.0 1.6 0.00 0.00 0.00 39 991.2
20260831001551 36 28 0.0 3.2 0.00 0.00 0.00 37 991.3
20260831000035 36 68 0.0 4.8 0.00 0.00 0.00 38 991.4
20260830234534 36 75 0.0 14.5 0.00 0.00 0.00 38 991.4
20260830233034 36 101 0.0 9.7 0.00 0.00 0.00 38 991.5
20260830231535 36 113 0.0 9.7 0.00 0.00 0.00 38 991.5